TimeCDT,TemperatureF,Dew PointF,Humidity,Sea Level PressureIn,VisibilityMPH,Wind Direction,Wind SpeedMPH,Gust SpeedMPH,PrecipitationIn,Events,Conditions,WindDirDegrees,DateUTC
12:15 AM,36.9,26.6,66,30.11,10.0,South,8.1,-,N/A,,Clear,180,2012-10-11 05:15:00
12:35 AM,37.2,27.0,66,30.10,10.0,South,8.1,-,N/A,,Clear,190,2012-10-11 05:35:00
12:55 AM,37.6,27.3,66,30.10,10.0,South,8.1,-,N/A,,Clear,190,2012-10-11 05:55:00
1:15 AM,38.8,28.2,66,30.10,10.0,SSW,5.8,-,N/A,,Clear,200,2012-10-11 06:15:00
1:55 AM,41.0,29.1,63,30.09,10.0,SSW,8.1,-,N/A,,Clear,200,2012-10-11 06:55:00
2:15 AM,40.5,29.1,64,30.10,10.0,SSW,6.9,-,N/A,,Clear,210,2012-10-11 07:15:00
2:55 AM,39.6,29.1,66,30.09,10.0,SSW,6.9,-,N/A,,Clear,200,2012-10-11 07:55:00
3:15 AM,43.2,30.7,62,30.08,10.0,SSW,8.1,-,N/A,,Clear,210,2012-10-11 08:15:00
3:35 AM,43.9,30.9,60,30.08,10.0,SSW,10.4,-,N/A,,Clear,210,2012-10-11 08:35:00
3:55 AM,44.2,31.1,60,30.09,10.0,SSW,10.4,-,N/A,,Clear,210,2012-10-11 08:55:00
4:15 AM,44.2,31.1,60,30.08,10.0,SSW,9.2,-,N/A,,Clear,210,2012-10-11 09:15:00
4:35 AM,44.6,31.3,60,30.08,10.0,SSW,9.2,-,N/A,,Clear,210,2012-10-11 09:35:00
4:55 AM,44.6,31.5,60,30.08,10.0,SSW,9.2,-,N/A,,Clear,210,2012-10-11 09:55:00
5:15 AM,44.1,31.5,61,30.08,10.0,SSW,10.4,-,N/A,,Clear,210,2012-10-11 10:15:00
5:35 AM,44.2,31.5,61,30.08,10.0,SSW,9.2,-,N/A,,Clear,210,2012-10-11 10:35:00
5:55 AM,44.1,31.6,62,30.08,10.0,SSW,9.2,-,N/A,,Clear,210,2012-10-11 10:55:00
6:15 AM,42.8,31.5,64,30.08,10.0,SSW,8.1,-,N/A,,Clear,210,2012-10-11 11:15:00
6:35 AM,42.8,31.5,64,30.08,10.0,SSW,6.9,-,N/A,,Clear,210,2012-10-11 11:35:00
6:55 AM,40.5,30.7,68,30.08,10.0,SSW,5.8,-,N/A,,Clear,200,2012-10-11 11:55:00
7:15 AM,40.5,31.1,69,30.08,10.0,SSW,8.1,-,N/A,,Clear,200,2012-10-11 12:15:00
7:35 AM,40.6,31.1,69,30.08,10.0,South,6.9,-,N/A,,Clear,190,2012-10-11 12:35:00
7:55 AM,41.0,31.6,69,30.08,10.0,South,6.9,-,N/A,,Clear,180,2012-10-11 12:55:00
8:15 AM,43.9,32.0,63,30.09,10.0,South,9.2,-,N/A,,Clear,190,2012-10-11 13:15:00
8:35 AM,46.8,32.0,57,30.10,10.0,SSW,9.2,-,N/A,,Clear,210,2012-10-11 13:35:00
8:55 AM,48.6,32.5,54,30.10,10.0,SSW,5.8,-,N/A,,Clear,210,2012-10-11 13:55:00
9:15 AM,52.0,32.5,48,30.11,10.0,SSW,6.9,-,N/A,,Clear,210,2012-10-11 14:15:00
9:35 AM,55.0,32.4,42,30.10,10.0,SSW,10.4,-,N/A,,Clear,210,2012-10-11 14:35:00
9:55 AM,57.4,32.0,38,30.10,10.0,SSW,11.5,17.3,N/A,,Clear,210,2012-10-11 14:55:00
10:15 AM,59.7,32.2,35,30.09,10.0,SW,15.0,21.9,N/A,,Clear,220,2012-10-11 15:15:00
10:35 AM,61.7,32.0,33,30.09,10.0,SW,15.0,23.0,N/A,,Clear,220,2012-10-11 15:35:00
10:55 AM,63.7,32.0,31,30.08,10.0,SW,12.7,19.6,N/A,,Clear,220,2012-10-11 15:55:00
11:15 AM,65.8,32.2,29,30.09,10.0,SW,12.7,-,N/A,,Clear,230,2012-10-11 16:15:00
11:35 AM,66.9,32.7,28,30.10,10.0,WSW,13.8,19.6,N/A,,Clear,240,2012-10-11 16:35:00
11:55 AM,68.2,32.9,27,30.09,10.0,WSW,15.0,20.7,N/A,,Clear,240,2012-10-11 16:55:00
12:15 PM,69.8,33.4,26,30.09,10.0,WSW,16.1,20.7,N/A,,Clear,250,2012-10-11 17:15:00
12:55 PM,72.1,35.4,26,30.07,10.0,West,12.7,19.6,N/A,,Clear,270,2012-10-11 17:55:00
1:15 PM,72.0,36.9,28,30.07,10.0,West,11.5,17.3,N/A,,Clear,270,2012-10-11 18:15:00
1:35 PM,72.9,37.9,28,30.05,10.0,WNW,11.5,19.6,N/A,,Clear,290,2012-10-11 18:35:00
1:55 PM,73.0,38.7,29,30.05,10.0,West,9.2,-,N/A,,Clear,280,2012-10-11 18:55:00
2:15 PM,73.8,39.2,29,30.05,2.0,West,10.4,-,N/A,,Haze,270,2012-10-11 19:15:00
2:35 PM,72.7,39.4,30,30.05,7.0,WNW,12.7,17.3,N/A,,Clear,290,2012-10-11 19:35:00
2:55 PM,73.6,39.6,29,30.05,10.0,West,9.2,16.1,N/A,,Clear,280,2012-10-11 19:55:00
3:15 PM,73.6,40.3,30,30.05,10.0,WNW,13.8,17.3,N/A,,Scattered Clouds,290,2012-10-11 20:15:00
3:55 PM,68.9,34.3,28,30.06,10.0,North,18.4,25.3,N/A,,Clear,350,2012-10-11 20:55:00
4:15 PM,67.3,34.0,29,30.07,10.0,North,16.1,23.0,N/A,,Clear,360,2012-10-11 21:15:00
4:35 PM,65.8,33.6,30,30.07,10.0,North,16.1,-,N/A,,Clear,350,2012-10-11 21:35:00
5:35 PM,63.0,32.9,32,30.09,10.0,North,19.6,24.2,N/A,,Clear,10,2012-10-11 22:35:00
5:55 PM,59.7,33.4,37,30.11,10.0,North,20.7,24.2,N/A,,Clear,10,2012-10-11 22:55:00
6:35 PM,55.8,33.1,42,30.14,10.0,North,13.8,-,N/A,,Scattered Clouds,10,2012-10-11 23:35:00
6:55 PM,54.9,33.1,44,30.15,10.0,North,15.0,-,N/A,,Mostly Cloudy,10,2012-10-11 23:55:00
7:15 PM,53.8,33.1,45,30.17,10.0,North,15.0,21.9,N/A,,Mostly Cloudy,10,2012-10-12 00:15:00
7:35 PM,53.1,32.7,46,30.19,10.0,North,13.8,-,N/A,,Mostly Cloudy,10,2012-10-12 00:35:00
7:55 PM,52.5,32.2,46,30.20,10.0,NNE,17.3,21.9,N/A,,Mostly Cloudy,20,2012-10-12 00:55:00
8:15 PM,51.8,31.1,45,30.21,10.0,NNE,12.7,-,N/A,,Overcast,20,2012-10-12 01:15:00
8:35 PM,51.1,30.9,46,30.22,10.0,NNE,12.7,20.7,N/A,,Overcast,20,2012-10-12 01:35:00
8:55 PM,50.2,31.1,48,30.24,10.0,NNE,13.8,18.4,N/A,,Overcast,20,2012-10-12 01:55:00
9:15 PM,50.0,30.9,48,30.25,10.0,North,13.8,17.3,N/A,,Overcast,10,2012-10-12 02:15:00
9:35 PM,49.8,30.2,47,30.27,10.0,North,11.5,17.3,N/A,,Overcast,10,2012-10-12 02:35:00
9:55 PM,49.3,28.4,45,30.27,10.0,NNE,13.8,17.3,N/A,,Overcast,20,2012-10-12 02:55:00
10:35 PM,49.1,27.5,43,30.29,10.0,NNE,13.8,18.4,N/A,,Overcast,20,2012-10-12 03:35:00
10:55 PM,48.7,27.5,44,30.30,10.0,NNE,10.4,-,N/A,,Overcast,20,2012-10-12 03:55:00
11:15 PM,48.6,28.2,45,30.31,10.0,North,10.4,16.1,N/A,,Overcast,10,2012-10-12 04:15:00
11:35 PM,48.4,28.2,46,30.31,10.0,NNE,9.2,-,N/A,,Overcast,20,2012-10-12 04:35:00
11:55 PM,48.2,28.4,46,30.32,10.0,NNE,8.1,-,N/A,,Overcast,20,2012-10-12 04:55:00